[[{"header":{"parameterUnit":"m.s-1","parameterCategory":1,"la1":30.2992,"la2":30.254,"lo1":-89.0895,"lo2":-89.0443,"dy":0.0025,"dx":0.0025,"nx":19,"ny":19,"refTime":"2026-05-19T03:00:00:Z","depth":0,"parameterNumber":2,"parameterNumberName":"U-component_of_WINDS"},"data":[0,0,0,-4.4743,-4.4746,-4.4888,-4.4889,-4.5072,-4.5073,0,0,0,0,0,0,0,0,0,0,0,-4.4702,-4.4703,-4.4743,-4.4746,-4.4888,-4.4889,-4.5071,-4.5073,0,0,0,0,0,0,0,0,0,0,0,-4.4702,-4.4703,-4.4705,-4.4747,-4.4888,-4.4889,-4.5071,-4.4963,0,0,0,0,0,0,0,0,0,0,-4.4825,-4.4789,-4.4703,-4.4705,-4.4748,-4.4888,-4.4889,-4.4958,-4.497,-4.5008,0,-4.5043,0,-4.5061,-4.5086,-4.5086,0,0,0,-4.4745,-4.4779,-4.4816,-4.4705,-4.4749,-4.4888,-4.4824,-4.4965,-4.4978,-4.5024,-4.5046,-4.5053,-4.5064,-4.5087,-4.5088,-4.5316,-4.5317,0,0,-4.4737,-4.4728,-4.4807,-4.4825,-4.4804,-4.4819,-4.4828,-4.4973,-4.4996,-4.5047,-4.5057,-4.5068,-4.5088,-4.509,-4.5315,-4.5316,0,0,0,-4.4715,-4.4723,-4.4756,-4.4818,-4.4843,-4.4823,-4.4834,-4.4989,-4.5001,-4.5059,-4.507,-4.5089,-4.5092,-4.5313,-4.5315,-4.5361,0,0,0,-4.471,-4.471,-4.4753,-4.4749,-4.4841,-4.4918,-4.4847,-4.4991,-4.5007,-4.5069,-4.5089,-4.5093,-4.5312,-4.5314,-4.5357,-4.5384,0,0,0,-4.4692,-4.4708,-4.4729,-4.4748,-4.4809,-4.4916,-4.4936,-4.4995,-4.5014,-4.5087,-4.5094,-4.5311,-4.5314,-4.5354,-4.5378,-4.544,0,0,0,-4.467,-4.4768,-4.473,-4.4844,-4.4808,-4.4945,-4.4935,-4.5037,-4.5105,-4.509,-4.5312,-4.5315,-4.5353,-4.5374,-4.5436,-4.5488,-4.551,0,0,-4.4789,-4.4783,-4.4851,-4.482,-4.4961,-4.4924,-4.5072,-4.5142,-4.5156,-4.5261,-4.5267,-4.5359,-4.5378,-4.5439,-4.564,-4.5657,0,0,0,-4.4885,-4.4934,-4.4973,-4.5038,-4.5095,-4.5145,-4.5194,-4.522,-4.531,-4.5209,-4.54,-4.5411,-4.5447,-4.5472,-4.5487,-4.5518,-4.5327,-4.5327,-4.5327,-4.5039,-4.5054,-4.5167,-4.5199,-4.5262,-4.5312,-4.5364,-4.5408,-4.5403,-4.5449,-4.5478,-4.5599,-4.5628,-4.5639,-4.5671,-4.551,-4.551,-4.551,-4.551,-4.5212,-4.5282,-4.5277,-4.5384,-4.5399,-4.5489,-4.5541,-4.5536,-4.5621,-4.5577,-4.561,-4.5557,-4.5657,-4.5686,-4.5514,-4.5513,-4.5513,-4.5513,-4.5512,-4.5312,-4.5348,-4.538,-4.5475,-4.5547,-4.5577,-4.566,-4.5671,-4.5682,-4.5715,-4.5747,-4.5746,-4.5744,-4.573,-4.573,-4.5731,-4.5731,-4.5732,-4.5732,-4.5402,-4.5436,-4.5504,-4.5574,-4.5618,-4.5676,-4.5729,-4.5772,-4.5822,-4.5823,-4.5824,-4.5814,-4.5666,-4.5627,-4.5738,-4.5737,-4.5736,-4.5736,-4.5735,-4.5567,-4.5532,-4.5637,-4.5681,-4.5764,-4.5834,-4.5849,-4.5935,-4.5973,-4.6013,-4.5998,-4.5888,-4.5881,-4.5869,-4.5836,-4.5996,-4.5996,-4.5996,-4.5996,-4.5648,-4.5648,-4.5758,-4.5826,-4.5896,-4.592,-4.6038,-4.6081,-4.6119,-4.6143,-4.6123,-4.6082,-4.607,-4.607,-4.6054,-4.6023,-4.6227,-4.6227,-4.6227,-4.575,-4.5756,-4.5854,-4.5892,-4.5959,-4.6015,-4.6126,-4.6205,-4.6242,-4.6237,-4.6161,-4.6152,-4.6086,-4.6064,-4.6053,-4.6028,-4.5972,0,0]},{"header":{"parameterUnit":"m.s-1","parameterCategory":1,"la1":30.2992,"la2":30.254,"lo1":-89.0895,"lo2":-89.0443,"dy":0.0025,"dx":0.0025,"nx":19,"ny":19,"refTime":"2026-05-19T03:00:00:Z","depth":0,"parameterNumber":3,"parameterNumberName":"V-component_of_WINDS"},"data":[0,0,0,3.4344,3.4346,3.4437,3.4437,3.4554,3.4555,0,0,0,0,0,0,0,0,0,0,0,3.4318,3.4318,3.4343,3.4346,3.4437,3.4437,3.4554,3.4555,0,0,0,0,0,0,0,0,0,0,0,3.4317,3.4318,3.4319,3.4346,3.4437,3.4437,3.4553,3.4484,0,0,0,0,0,0,0,0,0,0,3.4395,3.4373,3.4318,3.4319,3.4347,3.4437,3.4437,3.4481,3.4489,3.4513,0,3.4536,0,3.4547,3.4563,3.4563,0,0,0,3.4344,3.4366,3.439,3.4319,3.4348,3.4437,3.4395,3.4485,3.4494,3.4523,3.4537,3.4542,3.4549,3.4564,3.4564,3.4713,3.4713,0,0,3.4339,3.4334,3.4384,3.4396,3.4383,3.4393,3.4398,3.449,3.4505,3.4538,3.4544,3.4551,3.4564,3.4565,3.4712,3.4713,0,0,0,3.4326,3.433,3.4352,3.4391,3.4408,3.4395,3.4402,3.4501,3.4509,3.4546,3.4553,3.4565,3.4566,3.4711,3.4712,3.4746,0,0,0,3.4323,3.4323,3.435,3.4348,3.4406,3.4456,3.441,3.4502,3.4513,3.4552,3.4565,3.4568,3.471,3.4712,3.4743,3.4762,0,0,0,3.4311,3.4321,3.4335,3.4347,3.4386,3.4454,3.4467,3.4505,3.4517,3.4563,3.4568,3.471,3.4712,3.4741,3.4758,3.4801,0,0,0,3.4297,3.4361,3.4335,3.441,3.4386,3.4475,3.4467,3.4533,3.4576,3.4566,3.4711,3.4712,3.474,3.4756,3.4798,3.4836,3.4851,0,0,3.4375,3.437,3.4415,3.4395,3.4488,3.4461,3.4559,3.4602,3.461,3.4678,3.4682,3.4744,3.4758,3.48,3.4938,3.495,0,0,0,3.4438,3.447,3.4496,3.4538,3.4575,3.4608,3.4638,3.4655,3.4713,3.4645,3.4771,3.4779,3.4804,3.4822,3.4833,3.4855,3.472,3.472,3.472,3.454,3.455,3.4625,3.4646,3.4687,3.4719,3.4753,3.4781,3.4776,3.4806,3.4826,3.4908,3.493,3.4937,3.496,3.4846,3.4846,3.4846,3.4847,3.4656,3.4703,3.4699,3.477,3.478,3.4839,3.4873,3.4868,3.4924,3.4893,3.4916,3.4881,3.495,3.4971,3.4849,3.4849,3.4848,3.4848,3.4848,3.4724,3.4749,3.477,3.4834,3.4882,3.4901,3.4956,3.4962,3.4968,3.499,3.5013,3.5012,3.5013,3.5001,3.5001,3.5001,3.5002,3.5002,3.5002,3.4787,3.4809,3.4856,3.4903,3.4932,3.4971,3.5006,3.5034,3.5067,3.5067,3.5067,3.506,3.4956,3.4929,3.5006,3.5006,3.5005,3.5005,3.5004,3.4901,3.4877,3.4949,3.4979,3.5035,3.5084,3.5092,3.515,3.5174,3.5202,3.5191,3.5112,3.5107,3.5099,3.5077,3.5188,3.5188,3.5188,3.5188,3.4959,3.4958,3.5035,3.5082,3.5129,3.5145,3.5226,3.5254,3.5278,3.5294,3.5279,3.5251,3.5242,3.5242,3.5231,3.5211,3.5354,3.5354,3.5354,3.5031,3.5035,3.5103,3.5129,3.5174,3.5213,3.529,3.5344,3.5366,3.5361,3.5307,3.53,3.5255,3.5239,3.5231,3.5214,3.5177,0,0]}]]